カタログに戻る

FENGYUN 1C DEB

LostPO
NORAD 32233·DEBRIS·🇨🇳 China

打ち上げ May 10, 1999 から Taiyuan Satellite Launch Center

Loading…

次のパス (今後24時間)

TLE

古いSource: Space-Track

元期: Aug 29, 2022, 08:08 UTC

1 32233U 99025CWF 22241.33897525  .00001406  00000-0  69193-3 0  9993
2 32233  97.6910  81.7830 0253866  28.5964 332.8864 14.03419520772939

AllMySatでFENGYUN 1C DEBをリアルタイム追跡

Download on the App Store